GW0383 Weather Reports


Display with metric or nautical units.
time (UTC)temp
F
wind
direction
speed
MPH
gust
MPH
rain 1hr
in
rain 24hr
in
rain mn
in
humidity
%
barometer
mb
20260504174508 71 99 3.0 7.0 0.00 0.00 0.00 37 1007.3
20260504174005 73 154 2.0 3.0 0.00 0.00 0.00 36 1007.2
20260504173502 73 190 4.0 6.0 0.00 0.00 0.00 36 1007.6
20260504172959 71 191 2.0 5.0 0.00 0.00 0.00 37 1007.6
20260504172455 73 203 2.0 5.0 0.00 0.00 0.00 39 1007.7
20260504171951 71 128 1.0 3.0 0.00 0.00 0.00 36 1007.6
20260504171449 71 176 1.0 3.0 0.00 0.00 0.00 39 1007.8
20260504170945 72 122 1.0 6.0 0.00 0.00 0.00 36 1008.0
20260504170442 73 127 3.0 5.0 0.00 0.00 0.00 37 1007.8
20260504160402 69 195 3.0 3.0 0.00 0.00 0.00 39 1008.8
20260504150826 66 144 0.0 2.0 0.00 0.00 0.00 42 1009.4
20260504150322 66 127 0.0 1.0 0.00 0.00 0.00 44 1009.3
20260504141252 61 160 2.0 2.0 0.00 0.00 0.00 48 1009.4
20260504140749 60 149 1.0 2.0 0.00 0.00 0.00 49 1009.6
20260504140244 59 129 0.0 0.0 0.00 0.00 0.00 51 1009.7
20260504130713 55 108 0.0 2.0 0.00 0.00 0.00 54 1010.0
20260504130209 55 113 0.0 2.0 0.00 0.00 0.00 53 1009.9
20260504120133 53 132 0.0 1.0 0.00 0.00 0.00 41 1010.0
20260504110600 51 147 0.0 1.0 0.00 0.00 0.00 43 1010.3
20260504100522 51 151 0.0 1.0 0.00 0.00 0.00 43 1010.1
20260504081916 53 150 0.0 0.0 0.00 0.00 0.00 37 1010.5
20260504081413 53 152 0.0 0.0 0.00 0.00 0.00 38 1010.7
20260504080908 52 145 0.0 0.0 0.00 0.00 0.00 40 1010.4
20260504080405 52 176 0.0 0.0 0.00 0.00 0.00 39 1010.4
20260504070333 51 157 0.0 0.0 0.00 0.00 0.00 40 1010.3
20260504050715 53 102 0.0 0.0 0.00 0.00 0.00 38 1010.9
20260504050213 53 103 0.0 0.0 0.00 0.00 0.00 39 1011.0
20260504045710 53 106 0.0 0.0 0.00 0.00 0.00 37 1010.8
20260504045209 54 117 0.0 0.0 0.00 0.00 0.00 37 1010.8
20260504044708 54 122 0.0 0.0 0.00 0.00 0.00 37 1011.1
20260504044205 54 127 0.0 0.0 0.00 0.00 0.00 37 1011.2
20260504043702 54 127 0.0 0.0 0.00 0.00 0.00 38 1010.9
20260504043158 54 127 0.0 0.0 0.00 0.00 0.00 38 1011.0
20260504042656 54 127 0.0 0.0 0.00 0.00 0.00 38 1010.8
20260504042152 54 127 0.0 0.0 0.00 0.00 0.00 38 1010.5
20260504041648 54 127 0.0 0.0 0.00 0.00 0.00 38 1010.7
20260504041144 54 127 0.0 0.0 0.00 0.00 0.00 38 1010.8
20260504040641 54 127 0.0 0.0 0.00 0.00 0.00 38 1010.7
20260504040138 54 127 0.0 0.0 0.00 0.00 0.00 38 1010.8
20260504035635 54 127 0.0 0.0 0.00 0.00 0.00 38 1010.8
20260504035132 54 127 0.0 0.0 0.00 0.00 0.00 38 1010.7
20260504034630 54 127 0.0 0.0 0.00 0.00 0.00 37 1011.0
20260504034126 53 127 0.0 0.0 0.00 0.00 0.00 37 1010.7
20260504033624 53 127 0.0 0.0 0.00 0.00 0.00 37 1010.7
20260504033121 53 127 0.0 0.0 0.00 0.00 0.00 37 1010.9
20260504032618 53 128 0.0 0.0 0.00 0.00 0.00 36 1010.9
20260504032115 53 115 0.0 0.0 0.00 0.00 0.00 37 1010.8
20260504031612 53 114 0.0 0.0 0.00 0.00 0.00 38 1010.8
20260504031108 53 114 0.0 0.0 0.00 0.00 0.00 37 1010.8
20260504030605 53 136 0.0 0.0 0.00 0.00 0.00 37 1010.7
20260504025559 53 137 0.0 0.0 0.00 0.00 0.00 36 1010.9
20260504025055 53 135 0.0 0.0 0.00 0.00 0.00 36 1010.8
20260504024553 52 144 0.0 0.0 0.00 0.00 0.00 36 1010.8
20260504024049 52 142 0.0 0.0 0.00 0.00 0.00 36 1010.8
20260504023546 52 141 0.0 0.0 0.00 0.00 0.00 36 1010.8
20260504023042 53 142 0.0 0.0 0.00 0.00 0.00 35 1011.0
20260504022538 53 177 1.0 2.0 0.00 0.00 0.00 35 1011.0
20260504022034 53 141 0.0 0.0 0.00 0.00 0.00 35 1010.9
20260504021532 53 149 0.0 0.0 0.00 0.00 0.00 34 1010.7
20260504021029 53 145 0.0 0.0 0.00 0.00 0.00 34 1010.9
20260504020526 53 128 0.0 0.0 0.00 0.00 0.00 34 1010.8
20260504020022 54 121 0.0 0.0 0.00 0.00 0.00 33 1010.7
20260504015518 54 120 0.0 0.0 0.00 0.00 0.00 34 1010.7
20260504015015 54 132 0.0 1.0 0.00 0.00 0.00 33 1010.4
20260504014511 54 114 0.0 0.0 0.00 0.00 0.00 33 1010.8
20260504014008 54 134 0.0 0.0 0.00 0.00 0.00 32 1010.5
20260504013506 54 149 0.0 0.0 0.00 0.00 0.00 32 1010.3
20260504013002 54 150 0.0 0.0 0.00 0.00 0.00 32 1010.0
20260504012500 54 150 0.0 0.0 0.00 0.00 0.00 33 1010.2
20260504011958 54 150 0.0 0.0 0.00 0.00 0.00 33 1010.2
20260504011454 55 150 0.0 0.0 0.00 0.00 0.00 34 1010.0
20260504010950 55 150 0.0 0.0 0.00 0.00 0.00 32 1010.1
20260504010446 55 150 0.0 0.0 0.00 0.00 0.00 31 1010.0
20260504005942 55 150 0.0 0.0 0.00 0.00 0.00 30 1010.1
20260504005439 55 150 0.0 0.0 0.00 0.00 0.00 30 1009.9
20260504004937 56 150 0.0 0.0 0.00 0.00 0.00 29 1010.0
20260504004434 56 150 0.0 0.0 0.00 0.00 0.00 29 1009.7
20260504003931 56 150 0.0 0.0 0.00 0.00 0.00 28 1009.6
20260504003427 56 150 0.0 0.0 0.00 0.00 0.00 29 1010.0
20260504002924 56 150 0.0 0.0 0.00 0.00 0.00 28 1009.6
20260504002421 56 150 0.0 0.0 0.00 0.00 0.00 29 1009.8
20260504001918 56 150 0.0 0.0 0.00 0.00 0.00 29 1009.5
20260504001416 56 150 0.0 0.0 0.00 0.00 0.00 29 1009.5
20260504000912 57 150 0.0 1.0 0.00 0.00 0.00 29 1009.6
20260504000409 57 145 0.0 0.0 0.00 0.00 0.00 29 1009.7
20260503235907 57 155 1.0 2.0 0.00 0.00 0.00 30 1009.6
20260503235405 57 172 2.0 2.0 0.00 0.00 0.00 29 1009.7
20260503234902 59 154 1.0 2.0 0.00 0.00 0.00 30 1009.8
20260503234359 59 170 2.0 2.0 0.00 0.00 0.00 29 1009.7
20260503233857 60 154 1.0 1.0 0.00 0.00 0.00 33 1009.9
20260503233353 60 154 0.0 2.0 0.00 0.00 0.00 30 1009.8
20260503232850 61 177 2.0 2.0 0.00 0.00 0.00 29 1009.9
20260503232347 61 178 3.0 3.0 0.00 0.00 0.00 27 1009.4
20260503231845 61 149 0.0 1.0 0.00 0.00 0.00 27 1009.7
20260503231342 61 203 2.0 2.0 0.00 0.00 0.00 26 1009.5
20260503230838 62 161 0.0 1.0 0.00 0.00 0.00 29 1009.5
20260503230335 62 173 1.0 2.0 0.00 0.00 0.00 26 1009.3
20260503225833 62 196 1.0 2.0 0.00 0.00 0.00 27 1009.5
20260503225328 62 185 1.0 3.0 0.00 0.00 0.00 26 1009.2
20260503224825 62 181 1.0 3.0 0.00 0.00 0.00 28 1009.5
20260503224322 63 232 4.0 5.0 0.00 0.00 0.00 26 1009.4
20260503223820 62 180 2.0 3.0 0.00 0.00 0.00 28 1009.3
20260503223317 62 213 4.0 6.0 0.00 0.00 0.00 27 1009.2
20260503222813 62 204 4.0 6.0 0.00 0.00 0.00 26 1009.6
20260503222311 64 154 2.0 3.0 0.00 0.00 0.00 26 1009.9
20260503221809 63 221 4.0 5.0 0.00 0.00 0.00 25 1009.3
20260503221308 63 183 2.0 3.0 0.00 0.00 0.00 27 1009.6
20260503220803 64 190 3.0 5.0 0.00 0.00 0.00 26 1009.6
20260503220300 64 216 4.0 5.0 0.00 0.00 0.00 26 1009.6
20260503215757 64 157 2.0 3.0 0.00 0.00 0.00 28 1009.7
20260503215254 63 162 3.0 3.0 0.00 0.00 0.00 26 1009.5
20260503214752 63 166 2.0 3.0 0.00 0.00 0.00 27 1009.6
20260503214249 64 231 4.0 5.0 0.00 0.00 0.00 26 1009.6
20260503213746 64 200 3.0 5.0 0.00 0.00 0.00 25 1009.7
20260503213244 63 217 6.0 7.0 0.00 0.00 0.00 25 1009.8
20260503212740 63 224 3.0 6.0 0.00 0.00 0.00 26 1009.5
20260503212238 63 185 3.0 7.0 0.00 0.00 0.00 25 1009.7
20260503211735 64 225 6.0 10.0 0.00 0.00 0.00 26 1009.9
20260503211231 64 191 5.0 7.0 0.00 0.00 0.00 27 1009.9
20260503210727 63 188 3.0 5.0 0.00 0.00 0.00 27 1009.9
20260503210225 64 200 5.0 7.0 0.00 0.00 0.00 25 1010.0
20260503205720 66 215 3.0 6.0 0.00 0.00 0.00 27 1010.0
20260503205216 64 175 2.0 3.0 0.00 0.00 0.00 28 1010.1
20260503204713 64 212 3.0 5.0 0.00 0.00 0.00 28 1010.1
20260503204211 64 212 6.0 7.0 0.00 0.00 0.00 25 1010.1
20260503203707 64 220 4.0 6.0 0.00 0.00 0.00 27 1010.0
20260503203205 64 153 2.0 5.0 0.00 0.00 0.00 27 1010.0
20260503202702 65 213 6.0 8.0 0.00 0.00 0.00 27 1010.2
20260503202200 64 210 2.0 7.0 0.00 0.00 0.00 30 1010.3
20260503201658 62 197 2.0 6.0 0.00 0.00 0.00 26 1010.3
20260503201155 62 190 3.0 6.0 0.00 0.00 0.00 29 1010.1
20260503200651 63 205 3.0 5.0 0.00 0.00 0.00 28 1010.5
20260503200147 64 207 3.0 6.0 0.00 0.00 0.00 27 1010.7
20260503195644 64 190 2.0 3.0 0.00 0.00 0.00 29 1010.4
20260503195142 62 211 3.0 7.0 0.00 0.00 0.00 29 1010.7
20260503194638 62 208 3.0 7.0 0.00 0.00 0.00 28 1010.4
20260503194133 62 218 5.0 6.0 0.00 0.00 0.00 27 1010.8
20260503193631 62 179 6.0 7.0 0.00 0.00 0.00 29 1011.0
20260503193126 60 174 3.0 8.0 0.00 0.00 0.00 30 1011.1
20260503192622 61 223 5.0 8.0 0.00 0.00 0.00 28 1011.2
20260503192118 61 232 4.0 5.0 0.00 0.00 0.00 30 1011.4
20260503191615 62 211 3.0 7.0 0.00 0.00 0.00 30 1011.1
20260503191112 62 218 5.0 9.0 0.00 0.00 0.00 29 1011.4
20260503190609 62 217 4.0 5.0 0.00 0.00 0.00 28 1011.5
20260503190106 62 205 4.0 5.0 0.00 0.00 0.00 30 1011.5
20260503185603 61 217 4.0 8.0 0.00 0.00 0.00 29 1011.5
20260503185102 60 172 1.0 6.0 0.00 0.00 0.00 29 1011.8
20260503184558 60 200 3.0 6.0 0.00 0.00 0.00 31 1011.3
20260503184055 60 214 4.0 7.0 0.00 0.00 0.00 29 1011.9
20260503183551 60 214 4.0 8.0 0.00 0.00 0.00 30 1011.8
20260503183049 58 229 6.0 7.0 0.00 0.00 0.00 32 1011.7
20260503182547 58 210 5.0 9.0 0.00 0.00 0.00 29 1011.9
20260503182045 59 249 6.0 8.0 0.00 0.00 0.00 30 1011.9
20260503181541 59 201 5.0 6.0 0.00 0.00 0.00 35 1011.8
20260503181038 59 191 3.0 6.0 0.00 0.00 0.00 32 1011.5
20260503180535 56 223 7.0 8.0 0.00 0.00 0.00 33 1011.9
20260503180032 58 205 4.0 7.0 0.00 0.00 0.00 30 1011.8
20260503175530 59 160 0.0 6.0 0.00 0.00 0.00 35 1011.9
20260503175027 59 219 3.0 9.0 0.00 0.00 0.00 31 1011.7